Regional Weather Roundup
Issued by NWS Charleston, SC

Current Version | Previous Version | Graphics & Text | Print | Product List | Glossary On
Versions: 1 2 3 4 5 6 7 8 9 10 11 12 13 14 15 16 17 18 19 20 21 22 23 24 25 26 27 28 29 30 31 32 33 34 35 36 37 38 39 40 41 42 43 44 45 46 47 48 49 50
000 ASUS42 KCHS 210312 RWRCHS REGIONAL WEATHER ROUNDUP NATIONAL WEATHER SERVICE CHARLESTON SC 1100 PM EDT SUN AUG 20 2017 NOTE: "FAIR" INDICATES FEW OR NO CLOUDS BELOW 12,000 FEET WITH NO SIGNIFICANT WEATHER AND/OR OBSTRUCTIONS TO VISIBILITY. NOT ALL STATIONS ARE QUALITY CONTROLLED. USE DATA WITH CAUTION... ESPECIALLY DEWPOINT OBSERVATIONS. SCZ027-030-031-034>040-042>050-210400- ...SOUTHEAST SOUTH CAROLINA... CITY SKY/WX TMP DP RH WIND PRES REMARKS N CHARLESTON CLOUDY 83 77 82 CALM 30.13R HX 92 WATERFRONT PRK N/A 85 79 82 S6 29.97R HX 98 JOHNS ISLAND FAIR 82 79 89 S5 30.13R HX 93 PINOPOLIS N/A 82 79 89 CALM 30.07R HX 93 MONCKS CORNER FAIR 77 77 100 CALM 30.14R SUMMERVILLE FAIR 79 77 94 CALM 30.14R BEAUFORT MCAS CLOUDY 86 81 85 S5 30.12R HX 102 BEAUFORT ARPT FAIR 82 77 83 CALM 30.12R HX 91 HILTON HEAD IS MOCLDY 84 79 84 S5 30.13R HX 96 WALTERBORO CLOUDY 79 75 89 CALM 30.14R ALLENDALE NOT AVBL ...SOUTHERN MIDLANDS AND PEE DEE... CITY SKY/WX TMP DP RH WIND PRES REMARKS GEORGETOWN FAIR 79 79 100 CALM 30.15R KINGSTREE FAIR 77 73 88 CALM 30.14S ORANGEBURG PTCLDY 79 75 87 SE5 30.14R BARNWELL FAIR 82 77 83 CALM 30.14R HX 91 AIKEN FAIR 79 72 78 SE3 30.18R MANNING FAIR 79 79 100 CALM 30.14R COLUMBIA PTCLDY 84 73 69 CALM 30.13R HX 90 SUMTER CLEAR 82 73 75 CALM 30.11S FLORENCE CLOUDY 81 76 84 SE3 30.15R MYRTLE BEACH NOT AVBL N MYRTLE BEACH CLOUDY 83 77 82 S7 30.14R HX 92 $$ GAZ063-065-086>088-099>101-113>116-118-119-134>141-150-210400- ...SOUTHEAST GEORGIA... CITY SKY/WX TMP DP RH WIND PRES REMARKS SAVANNAH ARPT CLOUDY 83 77 82 S3 30.13R HX 92 HUNTER AAF NOT AVBL FORT STEWART CLOUDY 78 75 92 CALM 30.10R STATESBORO CLOUDY 81 75 82 CALM 30.13R SYLVANIA PTCLDY 80 79 99 CALM 30.14R CLAXTON FAIR 80 77 91 CALM 30.13R ...CSRA...CENTRAL AND FAR SOUTHEAST GEORGIA... CITY SKY/WX TMP DP RH WIND PRES REMARKS THOMSON CLEAR 80 74 80 SW3 30.18R AUGUSTA-BUSH PTCLDY 81 76 84 SE3 30.12R AUGUSTA-DANIEL PTCLDY 84 73 69 E5 30.14R HX 90 SWAINSBORO FAIR 81 75 83 S3 30.14R VIDALIA CLOUDY 81 73 78 SE3 30.13R EASTMAN FAIR 83 64 52 SE5 30.14R HAZLEHURST FAIR 81 66 60 S3 30.11R ALMA CLOUDY 77 72 84 CALM 30.11R WAYCROSS CLOUDY 77 73 86 CALM 30.12R JESUP FAIR 77 72 83 CALM 30.12R BAXLEY FAIR 75 75 100 CALM 30.12R BRUNSWICK CLOUDY 82 75 78 SE6 30.12R SAINT SIMONS MOCLDY 85 77 77 SE9 30.10S HX 95 $$ SCZ027-028-034-036>038-045-046-048>050-GAZ119-141-210400- ...LAKE AND SUPPLEMENTAL COASTAL OBSERVATIONS... STATION/POSITION TIME TEMP WIND PRES WAVE SWELL AIR SEA DIR/SP/G HT/PER HT/PER/DIR (UTC) (F) (DEG/KT/KT) (MB) (FT/S) (FT/S/D) WINYAH BAY 0145 84 130/ 5 1020.0 LAKE MURRAY 0220 86 150/ 10/ 13 1019.3 ACE BASIN NERRS 0145 85 150/ 2 1019.0 FORT PULASKI 0248 84 87 140/ 2/ 3 1020.4R SAPELO ISLAND 0200 84 150/ 2 1019.0 $$ ANZ835-935-AMZ111-154-330-350-352-354-370-450-454-472-210400- ...C-MAN AND BUOY OBSERVATIONS... STATION/POSITION TIME TEMP WIND PRES WAVE SWELL AIR SEA DIR/SP/G HT/PER HT/PER/DIR (UTC) (F) (DEG/KT/KT) (MB) (FT/S) (FT/S/D) BUOY 41004 0250 85 85 160/ 8/ 10 1019.8R 3/ 9 3/120/ 9 BUOY 41008 0250 85 85 140/ 10/ 12 1019.4R 2/ 8 2/110/ 8 FOLLY BEACH CMAN 0300 85 180/ 7/ 9 1020.9R CAPERS NEARSHORE 0208 83 87 160/ 8/ 12 1019.8R FRIPP NEARSHORE 0208 85 160/ 8/ 12 1019.2R STATION/POSITION TIME TEMP WIND PRES WAVE SWELL AIR SEA DIR/SP/G HT/PER HT/PER/DIR (UTC) (F) (DEG/KT/KT) (MB) (FT/S) (FT/S/D) 5E ST. MARYS GA 0230 84 N/A 2/ 9 FRYING PAN BUOY 0250 84 85 140/ 8/ 10 1020.4R 2/ 8 2/120/ 8 BUOY 41025 0250 84 85 160/ 4/ 4 1021.2R 2/ 8 2/120/ 8 CAPE LOOKOUT NC 0200 81 110/ 6/ 7 1020.8R BUOY 41002 0250 83 85 160/ 8/ 10 1021.5R 3/ 9 3/ 80/ 9 BUOY 41010 0250 80 85 80/ 8/ 10 1020.0R 2/ 8 2/110/ 8 ST AUGUSTINE FL 0300 82 83 160/ 9/ 10 1019.8R $$

USA.gov is the U.S. government's official web portal to all federal, state and local government web resources and services.